DW4032 Weather Reports


Display with metric or nautical units.
time (UTC)temp
F
wind
direction
speed
MPH
gust
MPH
rain 1hr
in
rain 24hr
in
rain mn
in
humidity
%
barometer
mb
20260506193053 55 32 3.0 8.0 0.00 0.00 0.00 70 1011.8
20260506191553 55 74 1.0 9.0 0.00 0.00 0.00 70 1011.6
20260506190051 55 33 5.0 13.0 0.00 0.00 0.00 69 1011.4
20260506184549 55 49 3.0 10.0 0.00 0.00 0.00 68 1011.2
20260506183047 55 43 2.0 12.0 0.00 0.00 0.00 68 1011.0
20260506181546 56 5 4.0 10.0 0.00 0.00 0.00 65 1010.8
20260506180045 56 32 4.0 8.0 0.00 0.00 0.00 62 1010.6
20260506174554 56 44 2.0 7.0 0.00 0.00 0.00 60 1010.5
20260506173052 56 60 3.0 8.0 0.00 0.00 0.00 58 1010.3
20260506171542 56 41 1.0 9.0 0.00 0.00 0.00 58 1010.2
20260506170046 56 43 2.0 10.0 0.00 0.00 0.00 58 1010.1
20260506164541 56 36 5.0 11.0 0.00 0.00 0.00 66 1010.0
20260506163048 56 336 2.0 8.0 0.00 0.00 0.00 72 1010.0
20260506161541 56 341 3.0 6.0 0.00 0.00 0.00 72 1010.0
20260506160040 56 360 2.0 11.0 0.00 0.00 0.00 71 1009.9
20260506154541 57 355 2.0 6.0 0.00 0.00 0.00 68 1009.9
20260506153044 58 55 3.0 8.0 0.00 0.00 0.00 55 1009.8
20260506151538 58 26 2.0 5.0 0.00 0.00 0.00 56 1009.8
20260506150048 59 342 4.0 12.0 0.00 0.00 0.00 60 1009.8
20260506144558 60 64 8.0 16.0 0.00 0.00 0.00 54 1009.7
20260506143048 61 34 6.0 16.0 0.00 0.00 0.00 53 1009.7
20260506141537 61 49 5.0 16.0 0.00 0.00 0.00 52 1009.7
20260506140053 61 44 3.0 12.0 0.00 0.00 0.00 53 1009.7
20260506134535 59 47 3.0 12.0 0.00 0.00 0.00 55 1009.6
20260506133029 58 332 3.0 10.0 0.00 0.00 0.00 54 1009.6
20260506131538 57 355 2.0 7.0 0.00 0.00 0.00 71 1009.5
20260506130029 57 324 3.0 7.0 0.00 0.00 0.00 73 1009.6
20260506124528 57 5 2.0 9.0 0.00 0.00 0.00 70 1009.5
20260506123037 58 20 2.0 5.0 0.00 0.00 0.00 64 1009.4
20260506121527 58 12 4.0 9.0 0.00 0.00 0.00 60 1009.4
20260506120031 58 44 8.0 15.0 0.00 0.00 0.00 59 1009.3
20260506114523 57 17 3.0 10.0 0.00 0.00 0.00 63 1009.3
20260506113021 56 27 1.0 5.0 0.00 0.00 0.00 72 1009.3
20260506111521 55 15 3.0 7.0 0.00 0.00 0.00 76 1009.4
20260506110028 56 360 4.0 10.0 0.00 0.00 0.00 75 1009.4
20260506104525 56 328 2.0 7.0 0.00 0.00 0.00 76 1009.2
20260506103022 55 336 4.0 10.0 0.00 0.00 0.00 75 1009.4
20260506101520 57 43 2.0 11.0 0.00 0.00 0.00 69 1009.2
20260506100021 57 22 7.0 11.0 0.00 0.00 0.00 71 1009.1
20260506094518 56 53 4.0 8.0 0.00 0.00 0.00 73 1009.1
20260506093023 57 44 4.0 8.0 0.00 0.00 0.00 70 1009.1
20260506091514 56 64 4.0 11.0 0.00 0.00 0.00 72 1009.0
20260506090013 56 347 3.0 6.0 0.00 0.00 0.00 72 1009.0
20260506084511 55 38 2.0 9.0 0.00 0.00 0.00 74 1008.9
20260506083007 54 12 4.0 13.0 0.00 0.00 0.00 77 1008.9
20260506081512 54 53 2.0 13.0 0.00 0.00 0.00 77 1008.8
20260506073004 53 31 1.0 7.0 0.00 0.00 0.00 81 1008.8
20260506071500 53 31 2.0 5.0 0.00 0.00 0.00 82 1008.8
20260506061555 51 344 2.0 5.0 0.00 0.00 0.00 84 1008.6
20260506044553 50 21 2.0 9.0 0.00 0.00 0.00 84 1008.7
20260506043049 50 28 3.0 10.0 0.00 0.00 0.00 83 1008.7
20260506041548 50 347 2.0 6.0 0.00 0.00 0.00 83 1008.6
20260506040050 50 5 2.0 9.0 0.00 0.00 0.00 83 1008.7
20260506034607 50 38 1.0 5.0 0.00 0.00 0.00 83 1008.7
20260506033045 50 9 1.0 5.0 0.00 0.00 0.00 82 1008.8
20260506031551 50 345 1.0 7.0 0.00 0.00 0.00 81 1008.8
20260506030043 50 18 1.0 4.0 0.00 0.00 0.00 82 1009.0
20260506024548 50 355 3.0 6.0 0.00 0.00 0.00 82 1009.1
20260506023040 49 5 1.0 7.0 0.00 0.00 0.00 83 1009.1
20260506021538 49 19 1.0 4.0 0.00 0.00 0.00 83 1009.1
20260506020038 49 335 1.0 3.0 0.00 0.00 0.00 84 1009.2
20260506014537 49 360 1.0 5.0 0.00 0.00 0.00 84 1009.3
20260506013041 49 23 2.0 7.0 0.00 0.00 0.00 84 1009.3
20260506011541 49 18 2.0 7.0 0.00 0.00 0.00 83 1009.3
20260506010050 49 14 2.0 6.0 0.00 0.00 0.00 83 1009.3
20260506004532 49 355 2.0 9.0 0.00 0.00 0.00 83 1009.5
20260506003028 49 17 2.0 6.0 0.00 0.00 0.00 82 1009.7
20260506001529 49 15 2.0 8.0 0.00 0.00 0.00 82 1009.8
20260506000024 48 355 2.0 5.0 0.00 0.00 0.00 82 1009.9
20260505234523 48 9 1.0 5.0 0.00 0.00 0.00 82 1010.0
20260505233021 48 360 1.0 5.0 0.00 0.00 0.00 81 1010.1
20260505231520 48 17 0.0 4.0 0.00 0.00 0.00 81 1010.1
20260505230025 48 15 1.0 3.0 0.00 0.00 0.00 81 1010.2
20260505224517 49 15 1.0 3.0 0.00 0.00 0.00 80 1010.2
20260505223017 49 46 1.0 8.0 0.00 0.00 0.00 79 1010.2
20260505221513 49 360 1.0 4.0 0.00 0.00 0.00 79 1010.4
20260505220010 49 21 1.0 5.0 0.00 0.00 0.00 79 1010.6
20260505214510 50 360 1.0 7.0 0.00 0.00 0.00 78 1010.6
20260505213019 50 25 1.0 6.0 0.00 0.00 0.00 78 1010.6
20260505211507 50 51 1.0 6.0 0.00 0.00 0.00 78 1010.7
20260505210007 50 360 1.0 7.0 0.00 0.00 0.00 78 1010.7
20260505204506 51 44 2.0 6.0 0.00 0.00 0.00 78 1010.7
20260505203006 51 40 2.0 5.0 0.00 0.00 0.00 78 1010.8
20260505201506 51 78 2.0 8.0 0.00 0.00 0.00 77 1010.7
20260505200006 51 350 2.0 12.0 0.00 0.00 0.00 77 1010.7